Location: ?
(35.4554°N, 139.3092°E)
Time: 22:43:37
(UTC+00:00)

BREEZE-M DEB (TANK) - Pass Details

Date: 21 April 2021
Orbit: 314 x 13086 km, 49.6° (Epoch: 09 May)

Event Time Altitude Azimuth Distance (km) Brightness Sun altitude
Exits shadow 19:21:05 12° 233° (SW) 1,090 3.7 -8.7°
Maximum altitude 19:21:10 12° 230° (SW) 1,087 3.7 -8.7°
Drops below altitude 10° 19:22:15 10° 201° (SSW) 1,209 4.2 -8.5°
Sets 19:25:03 0° 165° (SSE) 2,301 5.9 -8.0°
